星链-1838 (STARLINK-1838 )

导读 | 星芒AI

STARLINK-1838 是 SpaceX Starlink 项目中的第 1838 颗卫星,属于其低轨卫星互联网星座的一部分。该卫星于 2023 年发射,旨在为全球用户提供高速、低延迟的互联网服务。它运行在约 550 公里的轨道高度,采用先进的通信技术,支持宽带接入。Starlink 卫星群致力于覆盖偏远地区,提升全球网络连接能力。STARLINK-1838 的部署进一步增强了 Starlink 网络的稳定性和覆盖范围。

基本信息
目录编号:
47129
目录名称:
STARLINK-1838
国际标识:
2020-088H
轨道中心:
EARTH
卫星名称:
星链-1838
卫星全名:
星链-1838 (STARLINK-1838 )
卫星状态:
已陨落 最后检测时间 2025-05-08
发射日期:
2020-11-25 UTC
国别 :
美国 (US)
星等 :
--
轨道信息
数据来源 国际轨道数据
星历时间: 2025-05-08T10:42:47+0800
轨道信息已过期222天
半长轴: 6528.049km
偏心率: 0.0004123
轨道倾角: 53.008°
近地点辐角 289.295°
升交点赤经 164.128°
平近点角 169.214°
近地点: 147.222km
远地点: 152.606km
周期: 87.485分钟
每日圈数: 16.459919
详细信息
固有亮度:
5
最大亮度:
2.5
卫星平台:
Starlink V1.0
覆盖范围:
全球
运营商:
太空探索技术公司
运营商所在国:
美国
制造商(研发单位):
太空探索技术公司
制造商所在国:
美国
使用方式:
暂无
卫星简介
星链(Starlink)计划是由太空探索技术公司(SpaceX)提出的一个巨型低轨卫星互联网星座项目,计划在2019年至2024年间在太空搭建由约1.2万颗卫星组成的“星链”网络,其中1584颗将部署在地球上空550千米处的近地轨道,并从2020年开始工作。该卫星仍在工作。